BTK284 VVTS-WIII

Flight info

Callsign BTK284
Flight time N/A
Altitude 34000
Route XOBAV2D NIXIV L643 CN/K0870F350 L642 ESPOB/N0470F350 L642 ENREP/N0471F340 N891 UGPEK/N0470F360 N891 PU/N0471F350 B469 BIDAK
Aircraft B738/M-SDE2E3FGHIRWXY/LB1

Departure

Time 2026-05-05 15:27
Airport Tan Son Nhat International Airport (VVTS)

Arrival

Time N/A
Airport Soekarno-Hatta International Airport (WIII)
Time Latitude Longitude Altitude Speed Heading
2026-05-05 15:10 10.81600 106.66147 36 ft 0 kts 95°
2026-05-05 15:19 10.81601 106.66136 55 ft 2 kts 95°
2026-05-05 15:19 10.81603 106.66120 19 ft 2 kts 95°
2026-05-05 15:20 10.81604 106.66103 36 ft 2 kts 94°
2026-05-05 15:20 10.81604 106.66086 36 ft 2 kts 72°
2026-05-05 15:20 10.81596 106.66073 35 ft 2 kts 22°
2026-05-05 15:20 10.81589 106.66070 36 ft 0 kts 12°
2026-05-05 15:22 10.81609 106.66062 35 ft 8 kts 333°
2026-05-05 15:22 10.81689 106.66056 36 ft 14 kts
2026-05-05 15:22 10.81786 106.66065 36 ft 14 kts
2026-05-05 15:23 10.81868 106.66102 35 ft 13 kts 56°
2026-05-05 15:23 10.81903 106.66186 35 ft 13 kts 69°
2026-05-05 15:23 10.81936 106.66269 36 ft 12 kts 68°
2026-05-05 15:23 10.81971 106.66364 36 ft 18 kts 69°
2026-05-05 15:24 10.82026 106.66511 31 ft 26 kts 69°
2026-05-05 15:24 10.82092 106.66682 33 ft 25 kts 68°
2026-05-05 15:24 10.82153 106.66844 31 ft 24 kts 69°
2026-05-05 15:24 10.82214 106.66993 35 ft 20 kts 53°
2026-05-05 15:25 10.82284 106.66999 34 ft 16 kts 339°
2026-05-05 15:25 10.82337 106.66915 34 ft 15 kts 273°
2026-05-05 15:25 10.82332 106.66848 31 ft 0 kts 249°
2026-05-05 15:25 10.82331 106.66848 31 ft 0 kts 249°
2026-05-05 15:26 10.82318 106.66812 31 ft 27 kts 249°
2026-05-05 15:26 10.82160 106.66399 31 ft 97 kts 249°
2026-05-05 15:26 10.81843 106.65558 34 ft 156 kts 249°
2026-05-05 15:26 10.81398 106.64375 143 ft 196 kts 249°
2026-05-05 15:27 10.80926 106.63125 1046 ft 183 kts 246°
2026-05-05 15:27 10.80452 106.61885 1627 ft 199 kts 246°
2026-05-05 15:27 10.79909 106.60479 1893 ft 227 kts 246°
2026-05-05 15:27 10.79300 106.58903 2077 ft 249 kts 246°
2026-05-05 15:28 10.78651 106.57225 2514 ft 259 kts 247°
2026-05-05 15:28 10.77845 106.55530 2780 ft 275 kts 229°
2026-05-05 15:28 10.76368 106.54302 3367 ft 275 kts 202°
2026-05-05 15:28 10.74617 106.53555 4228 ft 273 kts 199°
2026-05-05 15:29 10.72830 106.52843 4938 ft 279 kts 199°
2026-05-05 15:29 10.71009 106.52129 5670 ft 282 kts 199°
2026-05-05 15:29 10.69163 106.51406 6385 ft 286 kts 199°
2026-05-05 15:29 10.67292 106.50672 7071 ft 290 kts 199°
2026-05-05 15:30 10.65402 106.49929 7760 ft 293 kts 199°
2026-05-05 15:30 10.63489 106.49176 8455 ft 296 kts 199°
2026-05-05 15:30 10.61559 106.48413 9144 ft 300 kts 199°
2026-05-05 15:30 10.59602 106.47640 9828 ft 303 kts 199°
2026-05-05 15:31 10.57622 106.46857 10367 ft 311 kts 199°
2026-05-05 15:31 10.55548 106.46038 10652 ft 327 kts 199°
2026-05-05 15:31 10.53408 106.45192 11194 ft 332 kts 199°
2026-05-05 15:31 10.43176 106.41148 14128 ft 342 kts 200°